Montreal Mirabel, Quebec

12:44 AM EST on November 23, 2017 (GMT -0500)
Montreal Mirabel

Weather History for CYMX - January, 2012

Change the Weather History Date:

Sunday, January 15, 2012

  Actual Average Record
Temperature  
Mean Temperature -8 °F -  
Max Temperature 3 °F 15 °F 33 °F (2014)
Min Temperature -20 °F 1 °F -27 °F (2004)
Degree Days  
Heating Degree Days 74    
Moisture  
Dew Point -13 °F    
Average Humidity 72    
Maximum Humidity 84    
Minimum Humidity 56    
Precipitation  
Precipitation 0.00 in - - ()
Sea Level Pressure  
Sea Level Pressure 30.43 in    
Wind  
Wind Speed 5 mph ()    
Max Wind Speed 10 mph    
Max Gust Speed -    
Averages and records for this station are not official NWS values.
T = Trace of Precipitation, MM = Missing Value Source: Averaged Metar Reports

Daily Weather History Graph

Daily Weather History Graph

Search for Another Location

Airport or City:

Trip Planner

Search our weather history database for the weather conditions in past years. The results will help you decide how hot, cold, wet, or windy it might be!

Date:

Astronomy

Jan. 15, 2012 Rise Set
Actual Time 7:33 AM EST 4:37 PM EST
Civil Twilight 7:00 AM EST 5:11 PM EST
Nautical Twilight 6:23 AM EST 5:48 PM EST
Astronomical Twilight 5:47 AM EST 6:23 PM EST
Moon No Moon Rise 10:24 AM EST (1/15)
Length of Visible Light 10h 11m
Length of Day
9h 04m
Waning Gibbous, 58% of the Moon is Illuminated
Jan 15
Waning Gibbous
Jan 16
Last Quarter
Jan 23
New
Jan 30
First Quarter
Feb 7
Full

Hourly Weather History & Observations

Time (EST) Temp. Windchill Dew Point Humidity Pressure Visibility Wind Dir Wind Speed Gust Speed Precip Events Conditions
12:00 AM -9.4 °F -18.6 °F -14.8 °F 77% 30.22 in 25.0 mi WSW 3.5 mph - N/A   Mostly Cloudy
1:00 AM -9.4 °F - -14.8 °F 77% 30.25 in 25.0 mi WNW 2.3 mph - N/A   Scattered Clouds
2:00 AM -7.6 °F -18.8 °F -13.0 °F 77% 30.27 in 25.0 mi West 4.6 mph - N/A   Scattered Clouds
3:00 AM -9.4 °F -20.9 °F -14.8 °F 77% 30.29 in 25.0 mi West 4.6 mph - N/A   Scattered Clouds
4:00 AM -9.4 °F -22.7 °F -14.8 °F 77% 30.31 in 25.0 mi West 5.8 mph - N/A   Scattered Clouds
5:00 AM -13.0 °F -27.0 °F -16.6 °F 84% 30.34 in 25.0 mi West 5.8 mph - N/A   Scattered Clouds
6:00 AM -16.6 °F -29.3 °F -22.0 °F 76% 30.36 in 25.0 mi West 4.6 mph - N/A   Partly Cloudy
7:00 AM -18.4 °F -28.9 °F -23.8 °F 76% 30.40 in 25.0 mi West 3.5 mph - N/A   Partly Cloudy
8:00 AM -20.2 °F - -25.6 °F 76% 30.41 in 45.0 mi Calm Calm - N/A   Partly Cloudy
9:00 AM -13.0 °F -28.6 °F -18.4 °F 77% 30.44 in 45.0 mi West 6.9 mph - N/A   Partly Cloudy
10:00 AM -5.8 °F -18.4 °F -14.8 °F 65% 30.46 in 45.0 mi WSW 5.8 mph - N/A   Partly Cloudy
12:00 PM -2.2 °F -18.0 °F -11.2 °F 66% 30.46 in 45.0 mi SW 9.2 mph - N/A   Partly Cloudy
1:00 PM 1.4 °F -13.5 °F -9.4 °F 61% 30.45 in 45.0 mi WSW 9.2 mph - N/A   Partly Cloudy
2:00 PM 3.2 °F -12.2 °F -9.4 °F 56% 30.46 in 45.0 mi SW 10.4 mph - N/A   Partly Cloudy
3:00 PM 3.2 °F -10.3 °F -7.6 °F 61% 30.48 in 45.0 mi WSW 8.1 mph - N/A   Partly Cloudy
4:00 PM 1.4 °F -14.5 °F -7.6 °F 66% 30.50 in 45.0 mi WSW 10.4 mph - N/A   Partly Cloudy
5:00 PM -0.4 °F -15.7 °F -7.6 °F 72% 30.52 in 45.0 mi WSW 9.2 mph - N/A   Partly Cloudy
6:00 PM -0.4 °F -13.4 °F -7.6 °F 72% 30.53 in 25.0 mi WSW 6.9 mph - N/A   Partly Cloudy
7:00 PM -2.2 °F -14.2 °F -7.6 °F 78% 30.55 in 25.0 mi SW 5.8 mph - N/A   Partly Cloudy
8:00 PM -0.4 °F -14.7 °F -7.6 °F 72% 30.56 in 25.0 mi SW 8.1 mph - N/A   Clear
9:00 PM -2.2 °F -14.2 °F -9.4 °F 71% 30.57 in 25.0 mi WSW 5.8 mph - N/A   Clear
10:00 PM -2.2 °F -15.6 °F -9.4 °F 71% 30.58 in 25.0 mi WSW 6.9 mph - N/A   Clear
11:00 PM -4.0 °F -16.3 °F -9.4 °F 78% 30.58 in 25.0 mi WSW 5.8 mph - N/A   Clear